Location: Biltmore Gardens
(41.6070°N, 83.4666°W)
Time: 05:24:17
(UTC+00:00)

Vanguard 2 Rocket - Visible Passes

Search period start: 14 April 2021 00:00
Search period end: 24 April 2021 00:00
Orbit: 553 x 3326 km, 32.9° (Epoch: 13 April)

Date Brightness Start Highest point End Pass type
(mag) Time Alt. Az. Time Alt. Az. Time Alt. Az.
14 Apr 8.9 01:55:56 10° W 02:08:59 37° SSW 02:14:14 22° SSE visible
15 Apr 9.3 00:52:57 10° W 01:08:50 48° SSW 01:17:59 12° SE visible
15 Apr 9.5 03:13:49 10° W 03:21:26 18° SW 03:23:47 17° SSW visible
16 Apr 9.3 02:10:01 10° W 02:21:57 29° SW 02:27:32 18° S visible
17 Apr 9.5 01:06:45 10° W 01:21:58 40° SSW 01:31:18 11° SSE visible
17 Apr 9.9 03:30:28 10° WSW 03:34:02 12° SW 03:37:06 10° SW visible
18 Apr 9.6 02:24:38 10° W 02:34:41 22° SW 02:40:53 13° S visible
19 Apr 9.7 01:20:47 10° W 01:34:52 32° SW 01:44:20 10° SSE visible
20 Apr 10.0 02:40:34 10° W 02:47:12 14° SW 02:52:37 10° SSW visible
21 Apr 9.9 01:35:19 10° W 01:47:32 24° SW 01:56:24 10° S visible
22 Apr 10.0 00:31:32 10° W 00:47:21 35° SW 00:58:32 10° SSE visible
23 Apr 10.2 01:50:57 10° W 01:59:59 17° SW 02:07:16 10° SSW visible
